Date String (YYYY-MM-DD hh:mm:ss) UTC,Instrument flags,Ambient pressure (hPa),Sample flow (lpm),Bypass flow (lpm),Sample temperature (°C),Ambient temperature (°C),ASC tube jacket temperature (°C),LED temperature (°C),Box temperature (°C),Sample RH (%),Span deviation,Mass concentration (μg/m³),Mass concentration (μg/m³),Mass concentration (μg/m³)
DateTimeUTC,F1_M11,P_M11,Q1_M11,Q2_M11,T1_M11,T2_M11,T3_M11,T4_M11,T5_M11,U1_M11,ZSPAN_M11,X0_M11,X2_M11,X1_M11
2021-12-12 02:00:00,,0820.9,5.01,0.00,22.4,22.2,00.0,31.2,24.3,07.6,0000.0,0005.32,0002.27,0001.69
2021-12-12 02:01:00,,0820.9,4.99,0.00,22.4,22.2,00.0,31.2,24.3,07.5,0000.0,0005.21,0002.25,0001.71
2021-12-12 02:02:00,,0820.9,5.01,0.00,22.4,22.1,00.0,31.3,24.3,07.5,0000.0,0004.66,0002.28,0001.73
2021-12-12 02:03:00,,0820.9,4.99,0.00,22.5,22.1,00.0,31.3,24.3,07.5,0000.0,0004.97,0002.30,0001.74
2021-12-12 02:04:00,,0820.9,5.01,0.00,22.4,22.0,00.0,31.3,24.3,07.5,0000.0,0003.91,0002.27,0001.75
2021-12-12 02:05:00,,0821.0,5.00,0.00,22.4,21.9,00.0,31.3,24.2,07.5,0000.0,0003.82,0002.27,0001.76
2021-12-12 02:06:00,,0821.1,4.99,0.00,22.4,21.9,00.0,31.3,24.1,07.5,0000.0,0003.75,0002.25,0001.76
2021-12-12 02:07:00,,0821.1,5.01,0.00,22.4,21.8,00.0,31.3,24.0,07.6,0000.0,0003.81,0002.27,0001.77
2021-12-12 02:08:00,,0821.1,4.99,0.00,22.3,21.7,00.0,31.3,24.0,07.6,0000.0,0003.87,0002.28,0001.76
2021-12-12 02:09:00,,0821.1,5.00,0.00,22.3,21.7,00.0,31.3,24.0,07.6,0000.0,0003.63,0002.23,0001.76
2021-12-12 02:10:00,,0821.0,5.01,0.00,22.3,21.7,00.0,31.3,24.0,07.6,0000.0,0003.80,0002.23,0001.76
2021-12-12 02:11:00,,0821.0,5.01,0.00,22.3,21.7,00.0,31.3,24.0,07.5,0000.0,0003.82,0002.19,0001.75
2021-12-12 02:12:00,,0821.0,5.00,0.00,22.3,21.7,00.0,31.3,24.0,07.5,0000.0,0004.16,0002.24,0001.76
2021-12-12 02:13:00,,0820.9,5.00,0.00,22.3,21.7,00.0,31.3,24.0,07.5,0000.0,0004.10,0002.25,0001.76
2021-12-12 02:14:00,,0821.0,5.00,0.00,22.3,21.7,00.0,31.3,24.0,07.5,0000.0,0004.16,0002.26,0001.76
2021-12-12 02:15:00,,0821.1,5.01,0.00,22.3,21.7,00.0,31.3,24.1,07.5,0000.0,0004.66,0002.25,0001.75
2021-12-12 02:16:00,,0821.1,5.00,0.00,22.3,21.7,00.0,31.3,24.1,07.5,0000.0,0004.75,0002.32,0001.74
2021-12-12 02:17:00,,0821.1,5.00,0.00,22.3,21.7,00.0,31.3,24.1,07.5,0000.0,0004.69,0002.31,0001.75
2021-12-12 02:18:00,,0821.1,4.98,0.00,22.3,21.7,00.0,31.3,24.1,07.4,0000.0,0004.83,0002.34,0001.76
2021-12-12 02:19:00,,0821.1,5.02,0.00,22.3,21.7,00.0,31.3,24.1,07.4,0000.0,0005.07,0002.41,0001.78
2021-12-12 02:20:00,,0821.1,5.00,0.00,22.3,21.7,00.0,31.3,24.2,07.4,0000.0,0005.36,0002.48,0001.77
2021-12-12 02:21:00,,0821.0,5.00,0.00,22.3,21.8,00.0,31.3,24.1,07.4,0000.0,0005.30,0002.51,0001.78
2021-12-12 02:22:00,,0821.0,4.99,0.00,22.3,21.7,00.0,31.3,24.1,07.4,0000.0,0005.90,0002.50,0001.78
2021-12-12 02:23:00,,0821.0,5.02,0.00,22.3,21.7,00.0,31.3,24.1,07.4,0000.0,0006.52,0002.52,0001.78
2021-12-12 02:24:00,,0821.0,5.01,0.00,22.3,21.7,00.0,31.3,24.0,07.4,0000.0,0006.53,0002.51,0001.77
2021-12-12 02:25:00,,0821.0,4.99,0.00,22.3,21.7,00.0,31.3,24.0,07.4,0000.0,0006.25,0002.47,0001.77
2021-12-12 02:26:00,,0820.9,5.02,0.00,22.3,21.7,00.0,31.3,24.0,07.4,0000.0,0006.07,0002.53,0001.77
2021-12-12 02:27:00,,0821.0,4.98,0.00,22.3,21.7,00.0,31.3,24.0,07.3,0000.0,0007.33,0002.54,0001.78
2021-12-12 02:28:00,,0821.0,5.00,0.00,22.3,21.7,00.0,31.3,24.0,07.3,0000.0,0007.49,0002.54,0001.76
2021-12-12 02:29:00,,0820.9,5.00,0.00,22.3,21.7,00.0,31.3,24.0,07.3,0000.0,0007.54,0002.57,0001.75
2021-12-12 02:30:00,,0820.9,5.00,0.00,22.3,21.6,00.0,31.3,23.9,07.2,0000.0,0007.40,0002.54,0001.73
2021-12-12 02:31:00,,0820.9,4.99,0.00,22.3,21.6,00.0,31.3,23.9,07.3,0000.0,0007.29,0002.53,0001.74
2021-12-12 02:32:00,,0820.9,5.01,0.00,22.3,21.6,00.0,31.3,24.0,07.2,0000.0,0007.50,0002.56,0001.75
2021-12-12 02:33:00,,0820.8,4.99,0.00,22.3,21.6,00.0,31.3,24.0,07.2,0000.0,0007.10,0002.57,0001.74
2021-12-12 02:34:00,,0820.7,5.02,0.00,22.3,21.7,00.0,31.3,24.0,07.2,0000.0,0007.06,0002.58,0001.73
2021-12-12 02:35:00,,0820.7,5.00,0.00,22.3,21.7,00.0,31.3,24.0,07.2,0000.0,0008.14,0002.59,0001.74
2021-12-12 02:36:00,,0820.7,4.99,0.00,22.3,21.7,00.0,31.3,24.1,07.2,0000.0,0008.31,0002.59,0001.73
2021-12-12 02:37:00,,0820.6,5.00,0.00,22.3,21.7,00.0,31.3,24.0,07.2,0000.0,0008.16,0002.55,0001.72
2021-12-12 02:38:00,,0820.6,5.00,0.00,22.3,21.7,00.0,31.3,24.0,07.2,0000.0,0008.06,0002.54,0001.72
2021-12-12 02:39:00,,0820.7,4.99,0.00,22.3,21.6,00.0,31.3,23.9,07.2,0000.0,0008.94,0002.58,0001.73
2021-12-12 02:40:00,,0820.6,5.01,0.00,22.2,21.6,00.0,31.3,23.9,07.2,0000.0,0009.29,0002.61,0001.73
2021-12-12 02:41:00,,0820.6,5.01,0.00,22.2,21.6,00.0,31.2,23.9,07.2,0000.0,0009.68,0002.65,0001.74
2021-12-12 02:42:00,,0820.6,4.98,0.00,22.2,21.6,00.0,31.2,23.9,07.2,0000.0,0010.34,0002.68,0001.74
2021-12-12 02:43:00,,0820.9,5.01,0.00,22.2,21.6,00.0,31.2,24.0,07.2,0000.0,0010.40,0002.72,0001.75
2021-12-12 02:44:00,,0820.9,4.99,0.00,22.2,21.6,00.0,31.2,24.0,07.2,0000.0,0010.46,0002.79,0001.78
2021-12-12 02:45:00,,0820.8,5.01,0.00,22.2,21.6,00.0,31.2,24.0,07.2,0000.0,0010.14,0002.79,0001.81
2021-12-12 02:46:00,,0820.9,5.00,0.00,22.2,21.6,00.0,31.2,24.0,07.2,0000.0,0009.24,0002.83,0001.82
2021-12-12 02:47:00,,0820.9,5.01,0.00,22.3,21.6,00.0,31.2,24.0,07.2,0000.0,0009.27,0002.94,0001.85
2021-12-12 02:48:00,,0820.9,5.00,0.00,22.2,21.6,00.0,31.2,24.0,07.2,0000.0,0009.81,0003.01,0001.89
2021-12-12 02:49:00,,0820.9,5.00,0.00,22.2,21.6,00.0,31.2,24.0,07.2,0000.0,0010.32,0003.08,0001.93
2021-12-12 02:50:00,,0820.9,5.00,0.00,22.2,21.6,00.0,31.2,24.0,07.2,0000.0,0009.83,0003.12,0001.97
2021-12-12 02:51:00,,0820.9,4.99,0.00,22.3,21.6,00.0,31.2,24.0,07.2,0000.0,0009.45,0003.08,0002.00
2021-12-12 02:52:00,,0820.9,5.02,0.00,22.3,21.6,00.0,31.2,24.0,07.2,0000.0,0009.04,0003.06,0002.03
2021-12-12 02:53:00,,0820.9,5.00,0.00,22.3,21.7,00.0,31.2,24.0,07.2,0000.0,0009.31,0003.11,0002.06
2021-12-12 02:54:00,,0820.9,4.99,0.00,22.3,21.7,00.0,31.2,24.0,07.2,0000.0,0009.34,0003.11,0002.08
2021-12-12 02:55:00,,0820.9,5.00,0.00,22.3,21.7,00.0,31.2,24.0,07.2,0000.0,0009.21,0003.13,0002.09
2021-12-12 02:56:00,,0820.9,4.99,0.00,22.3,21.7,00.0,31.2,24.0,07.2,0000.0,0009.67,0003.15,0002.13
2021-12-12 02:57:00,,0820.9,5.00,0.00,22.3,21.7,00.0,31.2,24.0,07.2,0000.0,0009.75,0003.15,0002.16
2021-12-12 02:58:00,,0820.9,5.01,0.00,22.3,21.7,00.0,31.2,24.1,07.2,0000.0,0009.59,0003.13,0002.19
2021-12-12 02:59:00,,0820.9,5.00,0.00,22.3,21.7,00.0,31.2,24.0,07.2,0000.0,0009.28,0003.13,0002.20
